GW5741 Weather Reports


time (UTC)temp
F
wind
direction
speed
knots
gust
knots
rain 1hr
in
rain 24hr
in
rain mn
in
humidity
%
barometer
mb
20260905202949 80 56 0.9 1.7 0.00 0.00 0.00 51 1010.0
20260905202449 80 137 0.9 1.7 0.00 0.00 0.00 54 1009.9
20260905201949 79 39 0.9 2.6 0.00 0.00 0.00 52 1010.0
20260905201449 78 121 0.9 1.7 0.00 0.00 0.00 55 1010.1
20260905200949 79 55 1.7 2.6 0.00 0.00 0.00 55 1010.1
20260905200449 80 54 1.7 4.3 0.00 0.00 0.00 53 1010.1
20260905195949 80 81 1.7 2.6 0.00 0.00 0.00 52 1010.1
20260905195449 79 54 0.9 2.6 0.00 0.00 0.00 53 1010.0
20260905194949 80 62 0.9 1.7 0.00 0.00 0.00 51 1009.9
20260905194449 79 24 1.7 1.7 0.00 0.00 0.00 53 1010.0
20260905193949 80 44 1.7 1.7 0.00 0.00 0.00 54 1010.0
20260905193449 79 10 0.9 1.7 0.00 0.00 0.00 55 1010.1
20260905192949 79 64 0.9 1.7 0.00 0.00 0.00 53 1010.1
20260905192449 79 64 1.7 2.6 0.00 0.00 0.00 54 1010.1
20260905191949 79 50 0.9 2.6 0.00 0.00 0.00 52 1010.1
20260905191449 79 56 2.6 3.5 0.00 0.00 0.00 53 1010.1
20260905190950 79 112 0.0 0.9 0.00 0.00 0.00 55 1010.0
20260905190449 79 63 1.7 2.6 0.00 0.00 0.00 52 1010.1
20260905185949 78 21 0.0 0.9 0.00 0.00 0.00 53 1010.1
20260905185449 78 37 0.9 2.6 0.00 0.00 0.00 55 1010.2
20260905184949 79 59 1.7 3.5 0.00 0.00 0.00 52 1010.1
20260905184449 79 52 0.9 2.6 0.00 0.00 0.00 53 1010.2
20260905183949 78 52 1.7 2.6 0.00 0.00 0.00 54 1010.2
20260905183449 78 50 1.7 3.5 0.00 0.00 0.00 55 1010.2
20260905182949 78 76 0.0 0.9 0.00 0.00 0.00 56 1010.3
20260905182451 78 65 0.9 2.6 0.00 0.00 0.00 55 1010.3
20260905181949 78 68 1.7 3.5 0.00 0.00 0.00 56 1010.2
20260905181450 78 31 0.9 2.6 0.00 0.00 0.00 55 1010.4
20260905180949 78 83 1.7 3.5 0.00 0.00 0.00 56 1010.4
20260905180449 77 56 0.9 1.7 0.00 0.00 0.00 57 1010.5
20260905175949 77 40 0.9 1.7 0.00 0.00 0.00 57 1010.5
20260905175449 76 33 0.9 2.6 0.00 0.00 0.00 57 1010.5
20260905174950 76 82 0.9 2.6 0.00 0.00 0.00 57 1010.5
20260905174449 77 39 0.9 2.6 0.00 0.00 0.00 57 1010.6
20260905173950 78 43 0.9 2.6 0.00 0.00 0.00 55 1010.6
20260905173449 78 46 1.7 2.6 0.00 0.00 0.00 54 1010.6
20260905172949 78 81 0.9 1.7 0.00 0.00 0.00 56 1010.7
20260905172449 79 55 0.9 1.7 0.00 0.00 0.00 55 1010.7
20260905171949 79 76 0.9 1.7 0.00 0.00 0.00 53 1010.6
20260905171450 78 22 0.0 1.7 0.00 0.00 0.00 54 1010.7
20260905170949 77 85 0.9 2.6 0.00 0.00 0.00 58 1010.7
20260905170449 77 65 0.9 2.6 0.00 0.00 0.00 58 1010.7
20260905165950 77 85 0.0 1.7 0.00 0.00 0.00 58 1010.7
20260905165449 77 62 1.7 2.6 0.00 0.00 0.00 57 1010.7
20260905164950 77 65 1.7 1.7 0.00 0.00 0.00 58 1010.8
20260905164449 77 107 0.0 1.7 0.00 0.00 0.00 57 1010.8
20260905163949 76 38 0.9 1.7 0.00 0.00 0.00 58 1010.7
20260905163449 77 46 1.7 4.3 0.00 0.00 0.00 57 1010.8
20260905162949 77 51 1.7 3.5 0.00 0.00 0.00 57 1010.7
20260905162450 77 77 1.7 2.6 0.00 0.00 0.00 58 1010.7
20260905161949 76 98 0.9 1.7 0.00 0.00 0.00 57 1010.7
20260905161450 76 52 1.7 3.5 0.00 0.00 0.00 59 1010.7
20260905160949 76 94 0.9 2.6 0.00 0.00 0.00 60 1010.7
20260905160449 75 62 1.7 2.6 0.00 0.00 0.00 62 1010.7
20260905155949 75 73 0.9 2.6 0.00 0.00 0.00 64 1010.8
20260905155449 76 54 1.7 4.3 0.00 0.00 0.00 60 1010.8
20260905154950 76 54 1.7 2.6 0.00 0.00 0.00 61 1010.8
20260905154449 76 66 1.7 2.6 0.00 0.00 0.00 60 1010.7
20260905153950 76 63 1.7 3.5 0.00 0.00 0.00 60 1010.7
20260905153449 76 64 0.9 2.6 0.00 0.00 0.00 60 1010.6
20260905152949 76 61 1.7 2.6 0.00 0.00 0.00 59 1010.7
20260905152449 76 84 1.7 3.5 0.00 0.00 0.00 60 1010.8
20260905151949 76 4 0.9 3.5 0.00 0.00 0.00 59 1010.8
20260905151449 75 58 1.7 3.5 0.00 0.00 0.00 61 1010.8
20260905150949 75 79 0.9 1.7 0.00 0.00 0.00 62 1010.8
20260905150449 74 15 0.9 2.6 0.00 0.00 0.00 62 1010.8
20260905145949 74 73 1.7 3.5 0.00 0.00 0.00 65 1010.9
20260905145449 73 35 0.9 1.7 0.00 0.00 0.00 66 1010.8
20260905144951 73 67 0.9 1.7 0.00 0.00 0.00 65 1010.7
20260905144449 73 89 1.7 3.5 0.00 0.00 0.00 65 1010.9
20260905143949 72 34 0.0 0.9 0.00 0.00 0.00 68 1010.9
20260905143449 72 74 0.9 1.7 0.00 0.00 0.00 69 1010.9
20260905142949 72 71 1.7 2.6 0.00 0.00 0.00 70 1010.9
20260905142449 72 84 1.7 1.7 0.00 0.00 0.00 69 1010.8
20260905141951 72 71 1.7 1.7 0.00 0.00 0.00 70 1010.8
20260905141449 72 48 2.6 3.5 0.00 0.00 0.00 70 1010.8
20260905140949 72 66 0.9 1.7 0.00 0.00 0.00 72 1010.7
20260905140449 71 57 1.7 1.7 0.00 0.00 0.00 72 1010.8
20260905135949 71 83 0.9 0.9 0.00 0.00 0.00 72 1010.8
20260905135449 71 81 0.9 1.7 0.00 0.00 0.00 72 1010.8
20260905134949 71 84 1.7 2.6 0.00 0.00 0.00 73 1010.8
20260905134450 70 89 0.0 0.9 0.00 0.00 0.00 75 1010.9
20260905133949 70 91 0.0 0.0 0.00 0.00 0.00 75 1010.9
20260905133451 70 65 0.9 1.7 0.00 0.00 0.00 75 1010.9
20260905132950 69 91 0.0 0.9 0.00 0.00 0.00 77 1011.0
20260905132450 70 94 0.0 0.9 0.00 0.00 0.00 76 1011.0
20260905131949 70 55 1.7 1.7 0.00 0.00 0.00 75 1011.0
20260905131449 70 360 0.9 0.9 0.00 0.00 0.00 76 1011.0
20260905130949 69 67 0.0 0.0 0.00 0.00 0.00 76 1011.2
20260905130449 69 63 0.9 1.7 0.00 0.00 0.00 76 1011.2
20260905125949 69 67 1.7 1.7 0.00 0.00 0.00 76 1011.2
20260905125028 68 69 0.9 1.7 0.00 0.00 0.00 77 1011.0
20260905124449 68 86 0.0 1.7 0.00 0.00 0.00 78 1011.0
20260905123949 68 62 0.9 2.6 0.00 0.00 0.00 78 1011.2
20260905123449 68 59 1.7 2.6 0.00 0.00 0.00 78 1011.2
20260905122949 68 48 0.9 2.6 0.00 0.00 0.00 78 1011.3
20260905122450 68 50 1.7 2.6 0.00 0.00 0.00 78 1011.3
20260905121950 68 47 0.9 1.7 0.00 0.00 0.00 77 1011.3
20260905121449 68 65 1.7 3.5 0.00 0.00 0.00 78 1011.3
20260905120949 67 40 1.7 2.6 0.00 0.00 0.00 78 1011.3
20260905120450 67 58 0.9 1.7 0.00 0.00 0.00 79 1011.2
20260905115949 67 30 0.9 3.5 0.00 0.00 0.00 79 1011.2
20260905115449 66 80 0.9 2.6 0.00 0.00 0.00 80 1011.2
20260905114949 66 55 0.9 2.6 0.00 0.00 0.00 81 1011.2
20260905114449 65 64 0.9 1.7 0.00 0.00 0.00 81 1011.0
20260905113949 65 76 0.0 1.7 0.00 0.00 0.00 83 1010.9
20260905113449 64 125 0.9 1.7 0.00 0.00 0.00 84 1010.9
20260905112949 64 76 1.7 1.7 0.00 0.00 0.00 85 1010.8
20260905112449 64 178 0.0 0.9 0.00 0.00 0.00 86 1010.7
20260905111949 63 65 0.0 0.0 0.00 0.00 0.00 86 1010.7
20260905111451 63 73 0.0 1.7 0.00 0.00 0.00 86 1010.7
20260905110949 63 57 0.9 1.7 0.00 0.00 0.00 86 1010.6
20260905110450 63 360 0.0 0.0 0.00 0.00 0.00 86 1010.5
20260905105949 63 84 0.0 0.9 0.00 0.00 0.00 87 1010.4
20260905105450 63 77 0.0 1.7 0.00 0.00 0.00 87 1010.4
20260905104950 62 59 0.0 0.9 0.00 0.00 0.00 88 1010.4
20260905104449 62 360 0.0 0.0 0.00 0.00 0.00 88 1010.3
20260905103951 62 82 0.0 1.7 0.00 0.00 0.00 88 1010.3
20260905103449 62 91 0.9 1.7 0.00 0.00 0.00 87 1010.3
20260905102949 62 86 0.0 0.9 0.00 0.00 0.00 88 1010.3
20260905102449 62 91 0.0 1.7 0.00 0.00 0.00 88 1010.3
20260905101949 62 360 0.0 0.0 0.00 0.00 0.00 88 1010.2
20260905101450 63 360 0.0 0.0 0.00 0.00 0.00 87 1010.2
20260905100949 63 113 0.0 0.9 0.00 0.00 0.00 86 1010.2
20260905100449 63 360 0.0 0.0 0.00 0.00 0.00 86 1010.1
20260905095950 63 104 0.0 0.9 0.00 0.00 0.00 86 1010.1
20260905095449 63 360 0.0 0.0 0.00 0.00 0.00 85 1010.2
20260905094949 64 360 0.0 0.0 0.00 0.00 0.00 84 1010.1
20260905094449 64 360 0.0 0.0 0.00 0.00 0.00 83 1010.1
20260905093949 64 360 0.0 0.0 0.00 0.00 0.00 83 1010.0
20260905093450 64 360 0.0 0.0 0.00 0.00 0.00 83 1010.0
20260905092949 65 360 0.0 0.0 0.00 0.00 0.00 82 1010.0
20260905092450 65 360 0.0 0.0 0.00 0.00 0.00 81 1010.0
20260905091949 65 123 0.0 0.9 0.00 0.00 0.00 80 1010.0
20260905091449 65 360 0.0 0.0 0.00 0.00 0.00 79 1010.0
20260905090949 65 48 0.0 0.9 0.00 0.00 0.00 79 1010.0
20260905090450 65 113 0.0 1.7 0.00 0.00 0.00 79 1009.9
20260905085950 66 360 0.0 0.0 0.00 0.00 0.00 78 1009.9
20260905085449 66 100 0.0 0.9 0.00 0.00 0.00 77 1010.0
20260905084951 66 360 0.0 0.0 0.00 0.00 0.00 77 1010.0
20260905084450 67 360 0.0 0.0 0.00 0.00 0.00 76 1010.0
20260905083949 67 360 0.0 0.0 0.00 0.00 0.00 76 1010.0
20260905083450 67 72 0.0 0.9 0.00 0.00 0.00 75 1010.0
20260905082949 67 360 0.0 0.0 0.00 0.00 0.00 75 1010.0
20260905082450 67 360 0.0 0.0 0.00 0.00 0.00 74 1010.0
20260905081949 68 360 0.0 0.0 0.00 0.00 0.00 74 1010.0
20260905081450 68 62 0.9 1.7 0.00 0.00 0.00 73 1010.1
20260905080949 68 360 0.0 0.0 0.00 0.00 0.00 73 1010.0
20260905080452 69 98 0.9 1.7 0.00 0.00 0.00 73 1010.0
20260905075949 69 360 0.0 0.0 0.00 0.00 0.00 73 1010.1
20260905075450 69 51 0.0 0.9 0.00 0.00 0.00 71 1010.1
20260905074949 69 72 0.9 1.7 0.00 0.00 0.00 72 1010.0
20260905074449 69 70 0.9 2.6 0.00 0.00 0.00 71 1009.9
20260905073949 69 68 0.0 1.7 0.00 0.00 0.00 71 1010.0
20260905073450 69 67 0.9 1.7 0.00 0.00 0.00 71 1010.0
20260905072949 69 43 0.9 1.7 0.00 0.00 0.00 71 1009.9
20260905072449 69 67 0.9 2.6 0.00 0.00 0.00 70 1009.9
20260905071949 69 78 0.0 1.7 0.00 0.00 0.00 71 1010.0
20260905071449 70 63 0.9 1.7 0.00 0.00 0.00 70 1010.0
20260905070949 70 45 0.0 1.7 0.00 0.00 0.00 70 1010.1
20260905070449 70 68 1.7 3.5 0.00 0.00 0.00 70 1010.1
20260905065949 70 55 1.7 2.6 0.00 0.00 0.00 70 1010.1
20260905065449 70 73 0.9 1.7 0.00 0.00 0.00 70 1010.2
20260905064949 70 54 1.7 2.6 0.00 0.00 0.00 70 1010.2
20260905064449 70 59 0.9 2.6 0.00 0.00 0.00 70 1010.2
20260905063949 70 42 0.9 2.6 0.00 0.00 0.00 70 1010.2
20260905063449 70 56 0.9 2.6 0.00 0.00 0.00 70 1010.2
20260905062949 70 60 0.9 1.7 0.00 0.00 0.00 70 1010.4
20260905062449 70 82 0.9 1.7 0.00 0.00 0.00 70 1010.4
20260905061950 69 43 1.7 2.6 0.00 0.00 0.00 71 1010.4
20260905061449 69 67 0.9 1.7 0.00 0.00 0.00 71 1010.4
20260905060950 69 65 0.0 1.7 0.00 0.00 0.00 72 1010.5
20260905060449 69 61 0.9 1.7 0.00 0.00 0.00 72 1010.5
20260905055949 69 360 0.0 0.0 0.00 0.00 0.00 74 1010.5
20260905055451 69 70 0.0 0.9 0.00 0.00 0.00 74 1010.6
20260905054949 69 73 0.0 0.9 0.00 0.00 0.00 75 1010.6
20260905054449 69 86 0.0 0.9 0.00 0.00 0.00 75 1010.7
20260905053949 69 360 0.0 0.0 0.00 0.00 0.00 75 1010.8
20260905053450 69 360 0.0 0.0 0.00 0.00 0.00 75 1010.8
20260905052949 69 58 0.0 0.9 0.00 0.00 0.00 75 1010.7
20260905052449 69 75 0.9 1.7 0.00 0.00 0.00 77 1010.8
20260905051949 69 66 0.0 1.7 0.00 0.00 0.00 78 1010.7
20260905051449 69 65 0.9 1.7 0.00 0.00 0.00 79 1010.7
20260905050949 69 72 0.9 1.7 0.00 0.00 0.00 80 1010.8
20260905050449 69 73 0.9 1.7 0.00 0.00 0.00 81 1010.9
20260905045949 69 83 0.9 1.7 0.00 0.00 0.00 82 1011.0
20260905045449 69 65 0.9 1.7 0.00 0.00 0.00 82 1011.0
20260905044949 69 69 0.9 1.7 0.00 0.00 0.00 83 1011.2
20260905044449 69 4 0.0 0.9 0.00 0.00 0.00 83 1011.2
20260905043950 69 71 0.0 0.9 0.00 0.00 0.00 84 1011.4
20260905043449 70 71 0.0 1.7 0.00 0.00 0.00 83 1011.3
20260905042949 70 58 0.0 0.9 0.00 0.00 0.00 83 1011.3
20260905042450 69 66 0.0 0.9 0.00 0.00 0.00 83 1011.3
20260905041950 69 84 0.0 0.9 0.00 0.00 0.00 85 1011.3
20260905041449 69 79 0.0 0.9 0.00 0.00 0.00 84 1011.3
20260905040949 69 77 0.0 1.7 0.00 0.00 0.00 86 1011.4
20260905040449 70 76 0.0 1.7 0.00 0.00 0.00 86 1011.3
20260905035949 70 75 0.0 0.9 0.00 0.00 0.60 85 1011.4
20260905035450 70 81 0.0 1.7 0.00 0.00 0.60 85 1011.4
20260905034950 70 81 0.0 0.9 0.00 0.00 0.60 84 1011.4
20260905034449 70 80 0.0 1.7 0.00 0.00 0.60 83 1011.4
20260905033950 70 360 0.0 0.0 0.00 0.00 0.60 83 1011.4
20260905033450 69 78 0.0 1.7 0.00 0.00 0.60 84 1011.4
20260905032949 69 72 0.0 1.7 0.00 0.00 0.60 85 1011.4
20260905032450 69 114 0.0 0.9 0.00 0.00 0.60 87 1011.3
20260905031949 69 360 0.0 0.0 0.00 0.00 0.60 88 1011.4
20260905031449 69 360 0.0 0.0 0.00 0.00 0.60 88 1011.4
20260905030949 69 87 0.0 0.9 0.00 0.00 0.60 89 1011.4
20260905030449 69 360 0.0 0.0 0.00 0.00 0.60 88 1011.3
20260905025950 69 81 0.0 1.7 0.00 0.00 0.60 88 1011.2
20260905025449 69 360 0.0 0.0 0.00 0.00 0.60 87 1011.2
20260905024949 69 360 0.0 0.0 0.00 0.00 0.60 88 1011.2
20260905024453 68 48 0.0 0.9 0.00 0.00 0.60 89 1011.2
20260905023949 68 360 0.0 0.0 0.00 0.00 0.60 90 1011.2
20260905023449 68 360 0.0 0.0 0.00 0.00 0.60 91 1011.2
20260905022949 68 89 0.0 0.0 0.00 0.00 0.60 91 1011.2
20260905022449 68 360 0.0 0.0 0.00 0.00 0.60 91 1011.0
20260905021949 69 360 0.0 0.0 0.00 0.00 0.60 91 1011.0
20260905021449 69 99 0.0 0.9 0.00 0.00 0.60 91 1011.2
20260905020949 69 360 0.0 0.0 0.00 0.00 0.60 92 1011.2
20260905020449 69 95 0.0 0.9 0.00 0.00 0.60 91 1011.2
20260905015949 69 360 0.0 0.0 0.00 0.00 0.60 91 1011.3
20260905015449 69 72 0.0 0.0 0.00 0.00 0.60 90 1011.3
20260905014949 69 88 0.0 0.9 0.00 0.00 0.60 89 1011.2
20260905014449 69 360 0.0 0.0 0.00 0.00 0.60 89 1011.2
20260905013950 70 88 0.0 0.9 0.00 0.00 0.60 89 1011.0
20260905013449 70 99 0.0 0.9 0.00 0.00 0.60 89 1011.0
20260905012949 70 360 0.0 0.0 0.00 0.00 0.60 88 1011.0
20260905012449 70 72 0.0 0.9 0.00 0.00 0.60 88 1011.2
20260905011949 70 360 0.0 0.0 0.00 0.00 0.60 88 1011.2
20260905011450 71 360 0.0 0.0 0.00 0.00 0.60 87 1011.3
20260905010949 71 360 0.0 0.0 0.00 0.00 0.60 87 1011.2
20260905010449 71 78 0.0 0.9 0.00 0.00 0.60 87 1011.3
20260905005949 71 97 0.0 0.9 0.00 0.00 0.60 87 1011.4
20260905005449 71 86 0.0 1.7 0.00 0.00 0.60 86 1011.4
20260905004950 71 88 0.0 0.9 0.00 0.00 0.60 86 1011.2
20260905004449 71 94 0.0 0.9 0.00 0.00 0.60 85 1011.2
20260905003948 72 76 0.0 0.9 0.00 0.00 0.60 85 1011.2
20260905003449 72 360 0.0 0.0 0.00 0.00 0.60 86 1011.2
20260905002949 73 360 0.0 0.0 0.00 0.00 0.60 85 1011.0
20260905002449 73 83 0.0 0.9 0.00 0.00 0.60 85 1010.9
20260905001951 74 72 0.0 0.9 0.00 0.00 0.60 84 1011.0
20260905001449 74 360 0.0 0.0 0.00 0.00 0.60 81 1010.9
20260905000949 74 360 0.0 0.0 0.00 0.00 0.60 79 1010.9
20260905000449 75 360 0.0 0.0 0.00 0.00 0.60 76 1010.9
20260904235949 75 360 0.0 0.0 0.00 0.00 0.60 75 1010.9
20260904235449 76 360 0.0 0.0 0.00 0.00 0.60 73 1010.9
20260904234949 76 360 0.0 0.0 0.00 0.00 0.60 72 1010.8
20260904234449 76 360 0.0 0.0 0.00 0.00 0.60 71 1010.8
20260904233949 77 360 0.0 0.0 0.00 0.00 0.60 69 1010.8
20260904233449 77 82 0.0 0.9 0.00 0.00 0.60 68 1010.7
20260904232949 77 73 0.0 0.9 0.00 0.00 0.60 67 1010.7
20260904232449 77 44 0.0 0.9 0.00 0.00 0.60 67 1010.6
20260904231949 78 113 0.0 0.9 0.00 0.00 0.60 67 1010.6
20260904231449 78 360 0.0 0.0 0.00 0.00 0.60 66 1010.7
20260904230950 78 77 0.0 0.9 0.00 0.00 0.60 67 1010.6
20260904230450 78 360 0.0 0.0 0.00 0.00 0.60 66 1010.6
20260904225950 78 71 0.0 0.9 0.00 0.00 0.60 65 1010.6
20260904225449 79 87 0.0 1.7 0.00 0.00 0.60 64 1010.6
20260904224949 79 84 0.0 0.9 0.00 0.00 0.60 65 1010.6
20260904224449 79 86 0.0 0.0 0.00 0.00 0.60 65 1010.7
20260904223949 79 360 0.0 0.0 0.00 0.00 0.60 63 1010.7
20260904223452 80 124 0.0 1.7 0.00 0.00 0.60 64 1010.7
20260904222949 80 80 0.0 1.7 0.00 0.00 0.60 62 1010.7
20260904222450 80 78 0.9 1.7 0.00 0.00 0.60 61 1010.6
20260904221949 80 51 0.9 1.7 0.00 0.00 0.60 60 1010.6
20260904221450 80 74 0.0 1.7 0.00 0.00 0.60 59 1010.6
20260904220950 81 86 0.9 1.7 0.00 0.00 0.60 58 1010.5
20260904220449 81 360 0.0 0.0 0.00 0.00 0.60 58 1010.4
20260904215950 81 75 0.9 0.9 0.00 0.00 0.60 58 1010.5
20260904215449 82 82 0.9 1.7 0.00 0.00 0.60 57 1010.5
20260904214949 83 360 0.0 0.0 0.00 0.00 0.60 54 1010.5
20260904214450 84 52 0.9 1.7 0.00 0.00 0.60 53 1010.6
20260904213949 84 41 0.9 1.7 0.00 0.00 0.60 51 1010.5
20260904213449 84 78 0.0 0.9 0.00 0.00 0.60 52 1010.5
20260904212949 84 122 0.0 1.7 0.00 0.00 0.60 53 1010.5
20260904212449 84 94 0.0 1.7 0.00 0.00 0.60 49 1010.4
20260904211949 84 74 0.0 0.0 0.00 0.00 0.60 52 1010.4
20260904211449 84 76 0.9 1.7 0.00 0.00 0.60 50 1010.5
20260904210953 84 62 0.0 0.9 0.00 0.00 0.60 52 1010.5
20260904210450 83 98 0.9 1.7 0.00 0.00 0.60 52 1010.5
20260904205950 84 70 0.9 1.7 0.00 0.00 0.60 52 1010.6
20260904205449 84 49 0.9 1.7 0.00 0.00 0.60 51 1010.7
20260904204949 84 360 0.0 0.0 0.00 0.00 0.60 52 1010.7
20260904204450 84 31 0.9 1.7 0.00 0.00 0.60 50 1010.7
20260904203952 85 57 0.9 2.6 0.00 0.00 0.60 50 1010.8
20260904203450 84 81 0.0 0.9 0.00 0.00 0.60 49 1010.8